Regional Weather Roundup
Issued by NWS

Home | Current Version | Previous Version | Text Only | Print | Product List | Glossary On
Versions: 1 2 3 4 5 6 7 8 9 10 11 12 13 14 15 16 17 18 19 20 21 22 23 24 25 26 27 28 29 30 31 32 33 34 35 36 37 38 39 40 41 42 43 44 45 46 47 48 49 50
000
ASUS42 KTBW 250418
RWRFL
FLORIDA REGIONAL WEATHER ROUNDUP
NATIONAL WEATHER SERVICE TAMPA BAY RUSKIN FL
1200 AM EDT MON SEP 25 2017

NOTE: "FAIR" INDICATES FEW OR NO CLOUDS BELOW 12,000 FEET WITH NO
SIGNIFICANT WEATHER AND/OR OBSTRUCTIONS TO VISIBILITY.

FLZ001>010-012>015-112-114-115-250500-
PANHANDLE FLORIDA

CITY           SKY/WX    TMP DP  RH WIND       PRES   REMARKS
PENSACOLA      LGT RAIN  78  70  76 E3        29.93S
PENSACOLA NAS  LGT RAIN  76  69  79 E9        29.93S
MILTON NAS     LGT RAIN  73  72  96 NW3       29.94
CRESTVIEW      CLOUDY    73  71  93 CALM      29.95S FOG
DUKE FIELD     FAIR      73  72  96 CALM      29.94S
VALPARAISO     MOCLDY    74  72  93 CALM      29.93S
MARY ESTHER    MOCLDY    73  73  99 CALM      29.92S
PANAMA CITY    CLOUDY    73  71  93 NW6       29.92S
TYNDALL AFB    DRIZZLE   73  71  95 NE3       29.92S
APALACHICOLA   CLEAR     72  72 100 NE7       29.91S

STATION/POSITION SKY/WX   TEMP    WIND        PRES    WAVE   SWELL
                          AIR SEA DIR/SP/G            HT/PER HT/PER
                          (F)     (DEG/KT/KT) (MB)    (FT/S) (FT/S)
30.1N   87.6W              78 82   80/ 16/ 19 1012.8S   3/ 6
29.2N   88.2W              80 82   90/ 16/ 19 1012.3
28.8N   86.0W              80 82   70/ 12/ 14 1012.2S   3/ 6
PANAMA CITY BEAC           74     320/  6/  7 1013.6F
TOWER C                    78      40/ 13/ 14 1013.1S
28.5N   84.5W              80 82   20/ 14/ 16 1012.1F   2/ 4

$$
FLZ011-016>038-118-127-128-134-139-239-250500-
NORTH FLORIDA

CITY           SKY/WX    TMP DP  RH WIND       PRES   REMARKS
MARIANNA       CLOUDY    76  68  76 CALM      29.93R
TALLAHASSEE    CLOUDY    78  66  66 CALM      29.93R
PERRY          CLEAR     78  71  78 E3        29.93F
LIVE OAK       CLOUDY    77  72  83 VRB5      29.95F
CROSS CITY     CLEAR     76  71  83 E3        29.97S
LAKE CITY      FAIR      70  70 100 CALM      29.94F
GAINESVILLE    CLEAR     75  70  84 NW3       29.95F
WILLISTON      CLEAR     77  73  88 CALM      29.92F
PALATKA        MOCLDY    73  73 100 NW3       29.92F
MAYPORT NAS    PTCLDY    79  73  82 NE16      29.91F
JACKSONVILLE   PTCLDY    75  71  87 N3        29.92F
JAX NAS        PTCLDY    80  71  74 NE7       29.93S
JAX CECIL      CLEAR     70  70 100 CALM      29.92F
FERNANDINA BEA FAIR      79  68  69 MISG      29.91F
ST AUGUSTINE   PTCLDY    78  72  81 NE9       29.92F
PALM COAST     FAIR      77  45  32 NE6       29.90F

STATION/POSITION SKY/WX   TEMP    WIND        PRES    WAVE   SWELL
                          AIR SEA DIR/SP/G            HT/PER HT/PER
                          (F)     (DEG/KT/KT) (MB)    (FT/S) (FT/S)
SHELL POINT      NOT AVBL
KEATON BEACH               77      80/ 10/ 11 1012.8S
CEDAR KEY                  79      70/ 12/ 14 1013.2F
FERNANDINA                 80 82   30/  7/ 12 1014.2S
30.7N   81.3W                 81                N/A     7/14   5/14
MAYPORT                    80 82   50/ 16/ 20 1013.8F
31.4N   80.9W              80 80   40/ 14/ 16 1012.6F   6/15   5/15
ST AUGUSTINE               79 82   20/ 15/ 17 1012.9F

$$
FLZ040-043>046-052-053-057-058-063-144-250500-
INTERIOR CENTRAL FLORIDA

CITY           SKY/WX    TMP DP  RH WIND       PRES   REMARKS
OCALA          CLEAR     74  70  87 CALM      29.93S
THE VILLAGES     N/A     77  73  88 CALM      29.82F
LEESBURG       CLEAR     77  74  90 CALM      29.92F
SANFORD        CLEAR     78  74  87 N3        29.89F
ORLANDO EXEC   CLEAR     79  75  87 N7        29.90F
ORLANDO INTL   PTCLDY    77  76  96 N5        29.90F
KISSIMMEE      CLEAR     79  74  84 NE3       29.91S
WINTER HAVEN   CLEAR     78  72  81 E5        29.92S
LAKELAND       MOCLDY    77  70  78 CALM      29.92S
SEBRING        CLOUDY    80  73  79 CALM      29.90F
OKEECHOBEE     CLEAR     73  72  94 CALM      29.88F

$$
FLZ041-047-054-059-064-141-147-250500-
EAST CENTRAL FLORIDA

CITY           SKY/WX    TMP DP  RH WIND       PRES   REMARKS
DAYTONA BEACH  PTCLDY    79  72  79 N8        29.90S
DELAND         CLEAR     75  73  94 NW3       29.90F
JFK SPACE CTR  LGT RAIN  81  77  89 N6        29.87S
CAPE CANAVERAL PTCLDY    80  75  85 NE7       29.86F
PATRICK AFB    CLEAR     80  76  86 N7        29.87F
MELBOURNE      CLEAR     78  73  84 W5        29.88S
VERO BEACH     CLEAR     74  72  93 W3        29.88F
FT PIERCE      CLEAR     75  75 100 CALM      29.88S
STUART         CLEAR     79  75  89 W5        29.89S

STATION/POSITION SKY/WX   TEMP    WIND        PRES    WAVE   SWELL
                          AIR SEA DIR/SP/G            HT/PER HT/PER
                          (F)     (DEG/KT/KT) (MB)    (FT/S) (FT/S)
28.5N   80.2W              83 84   20/ 12/ 16 1012.4
28.9N   78.5W                      20/ 14/ 17 1010.3F  11/15  10/15
TRIDENT PIER               79 83  350/  4/  6 1013.5F
28.4N   80.5W                 83                N/A     4/12   2/12
27.5N   80.2W                 83                N/A     7/11   5/11

$$
FLZ050-056-061-142-242-148-248-149-249-151-251-155-255-
160-260-250500-
WEST CENTRAL FLORIDA

CITY           SKY/WX    TMP DP  RH WIND       PRES   REMARKS
CRYSTAL RIVER  FAIR      75  70  83 CALM      29.91F
INVERNESS      FAIR      73  73 100 CALM      29.92F
BROOKSVILLE    CLOUDY    78  72  81 NE3       29.92S
CLEARWATER AIR FAIR      79  72  78 E5        29.90S
ST PETE CLEARW PTCLDY    82  75  79 E7        29.90S
TAMPA INTL     MOCLDY    80  73  79 NE3       29.91S
TAMPA EXEC     CLOUDY    77  75  94 CALM      29.91S
PLANT CITY     CLEAR     77  72  83 CALM      29.93S
MACDILL AFB    PTCLDY    78  78 100 E7        29.90S
PETER O KNIGHT MOCLDY    77  77 100 E5        29.91S
ST PETERSBURG  CLEAR     83  73  72 E14       29.89S
SARASOTA       CLOUDY    74  74 100 E6        29.88S
VENICE         FAIR      79  75  89 E5        29.90S

STATION/POSITION SKY/WX   TEMP    WIND        PRES    WAVE   SWELL
                          AIR SEA DIR/SP/G            HT/PER HT/PER
                          (F)     (DEG/KT/KT) (MB)    (FT/S) (FT/S)
27.3N   84.2W                 83                N/A     2/ 4
CLEARWATER BEACH           81 84   70/  8/ 11 1012.6S
MIDDLE TAMPA BAY           81     110/  9/ 11 1012.6R
VENICE                     79 84   50/  5/  6 1012.3R

$$
FLZ066-069-070-075>078-162-262-165-265-250500-
SOUTHWEST FLORIDA AND KEYS

CITY           SKY/WX    TMP DP  RH WIND       PRES   REMARKS
PUNTA GORDA    MOCLDY    78  75  90 E5        29.91S
FT MYERS       CLEAR     79  78  97 E5        29.88F
SOUTHWEST INTL MOCLDY    79  76  90 E5        29.89S
NAPLES         CLOUDY    79  76  90 E7        29.88S
IMMOKALEE      CLOUDY    81  75  83 E5        29.90F
MARATHON       CLEAR     83  72  69 CALM      29.88R
KEY WEST NAS   PTCLDY    85  78  80 S5        29.89R HX  96
KEY WEST INTL  PTCLDY    85  75  72 S6        29.89S

STATION/POSITION SKY/WX   TEMP    WIND        PRES    WAVE   SWELL
                          AIR SEA DIR/SP/G            HT/PER HT/PER
                          (F)     (DEG/KT/KT) (MB)    (FT/S) (FT/S)
NAPLES                        88   60/  4/  6 1012.2R
DRY TORTUGAS               85     120/  5/  5 1012.3R
SAND KEY                   83                 1012.9R

$$
FLZ067-068-071>074-168-172>174-250500-
SOUTHEAST FLORIDA

CITY           SKY/WX    TMP DP  RH WIND       PRES   REMARKS
W PALM BEACH   PTCLDY    78  74  87 W5        29.88F
FT LAUDER-EXEC PTCLDY    81  74  79 N3        29.87F
FT LAUDERDALE  PTCLDY    83  75  77 CALM      29.87S
POMPANO BEACH  PTCLDY    80  74  81 NW5       29.87F
PEMBROKE PINES PTCLDY    82  74  76 CALM      29.89S
OPA LOCKA      PTCLDY    82  75  79 NE3       29.88F
MIAMI          PTCLDY    82  75  79 CALM      29.88F
WEST KENDALL   MOCLDY    80  76  87 CALM      29.88F
HOMESTEAD      MOCLDY    81  79  94 CALM      29.87F

STATION/POSITION SKY/WX   TEMP    WIND        PRES    WAVE   SWELL
                          AIR SEA DIR/SP/G            HT/PER HT/PER
                          (F)     (DEG/KT/KT) (MB)    (FT/S) (FT/S)
PORT EVERGLADES            84      20/  4/  7 1011.8F
VIRGINIA KEY               83 86   30/  4/  5 1011.5S
LAKE WORTH                 83 84   20/  7/  9 1012.7F
FOWEY ROCKS                83 85   70/  5/  8 1012.3F
SETTLEMENT POINT           83     350/  9/ 10 1011.1F

$$




USA.gov is the U.S. government's official web portal to all federal, state and local government web resources and services.